timestamp,wind_dir_avg,wind_spd_avg,wind_spd_max_dir,wind_spd_gust,battery_voltage,lat,long
2024-02-22 00:04:00+00:00,240.0,3.87,242.0,5.64,12.17,47.59359,-54.27349
2024-02-22 00:14:00+00:00,244.0,4.31,251.0,5.83,12.17,47.59359,-54.27349
2024-02-22 00:24:00+00:00,247.0,4.14,256.0,5.77,12.17,47.59359,-54.27349
2024-02-22 00:34:00+00:00,232.0,4.17,233.0,5.04,12.17,47.59359,-54.27349
2024-02-22 00:44:00+00:00,246.0,4.5,252.0,6.06,12.17,47.59359,-54.27349
2024-02-22 00:54:00+00:00,254.0,4.25,255.0,5.13,12.17,47.59359,-54.27349
2024-02-22 01:04:00+00:00,241.0,4.43,250.0,6.58,12.17,47.59359,-54.27349
2024-02-22 01:14:00+00:00,248.0,5.13,258.0,6.44,12.09,47.59359,-54.27349
2024-02-22 01:24:00+00:00,250.0,4.32,255.0,5.33,12.09,47.59359,-54.27349
2024-02-22 01:34:00+00:00,248.0,4.53,251.0,5.58,12.09,47.59359,-54.27349
2024-02-22 01:44:00+00:00,253.0,4.12,258.0,5.28,12.09,47.59359,-54.27349
2024-02-22 01:54:00+00:00,243.0,4.54,247.0,5.46,12.09,47.59359,-54.27349
2024-02-22 02:04:00+00:00,235.0,4.59,239.0,5.37,12.09,47.59359,-54.27349
2024-02-22 02:14:00+00:00,235.0,4.76,240.0,6.79,12.09,47.59359,-54.27349
2024-02-22 02:24:00+00:00,246.0,4.53,243.0,6.96,12.09,47.59359,-54.27349
2024-02-22 02:34:00+00:00,244.0,3.71,249.0,4.98,12.09,47.59359,-54.27349
2024-02-22 02:44:00+00:00,264.0,4.7,262.0,6.17,12.09,47.59359,-54.27349
2024-02-22 02:54:00+00:00,246.0,4.83,243.0,6.32,12.09,47.59359,-54.27349
2024-02-22 03:04:00+00:00,249.0,5.57,250.0,6.46,12.09,47.59359,-54.27349
2024-02-22 03:14:00+00:00,254.0,5.22,249.0,6.44,12.09,47.59359,-54.27349
2024-02-22 03:24:00+00:00,264.0,4.96,266.0,6.41,12.09,47.59359,-54.27349
2024-02-22 03:34:00+00:00,249.0,3.91,258.0,6.23,12.09,47.59359,-54.27349
2024-02-22 03:44:00+00:00,259.0,4.59,264.0,5.96,12.09,47.59359,-54.27349
2024-02-22 03:54:00+00:00,263.0,4.96,259.0,6.14,12.09,47.59359,-54.27349
2024-02-22 04:04:00+00:00,260.0,4.84,264.0,6.18,12.09,47.59359,-54.27349
2024-02-22 04:14:01+00:00,258.0,3.61,268.0,5.65,12.09,47.59359,-54.27349
2024-02-22 04:24:01+00:00,291.0,3.45,280.0,5.62,12.09,47.59359,-54.27349
2024-02-22 04:34:01+00:00,265.0,3.74,273.0,6.1,12.09,47.59359,-54.27349
2024-02-22 04:44:01+00:00,277.0,4.23,276.0,6.04,12.09,47.59359,-54.27349
2024-02-22 04:54:01+00:00,255.0,4.14,264.0,6.15,12.09,47.59359,-54.27349
2024-02-22 05:04:01+00:00,254.0,4.17,257.0,6.04,12.09,47.59359,-54.27349
2024-02-22 05:14:00+00:00,245.0,3.55,247.0,5.03,12.01,47.59359,-54.27349
2024-02-22 05:24:00+00:00,243.0,4.94,247.0,5.62,12.01,47.59359,-54.27349
2024-02-22 05:34:00+00:00,257.0,4.65,259.0,5.6,12.01,47.59359,-54.27349
2024-02-22 05:44:00+00:00,243.0,4.19,247.0,5.6,12.01,47.59359,-54.27349
2024-02-22 05:54:00+00:00,273.0,3.15,278.0,4.66,12.01,47.59359,-54.27349
2024-02-22 06:04:00+00:00,248.0,4.06,245.0,5.31,12.01,47.59359,-54.27349
2024-02-22 06:14:00+00:00,257.0,5.38,247.0,6.44,12.01,47.59359,-54.27349
2024-02-22 06:24:00+00:00,245.0,3.57,255.0,4.91,12.01,47.59359,-54.27349
2024-02-22 06:34:00+00:00,224.0,4.48,241.0,6.2,12.01,47.59359,-54.27349
2024-02-22 06:44:00+00:00,235.0,4.43,242.0,6.68,12.01,47.59359,-54.27349
2024-02-22 06:54:00+00:00,245.0,5.81,244.0,6.76,12.01,47.59359,-54.27349
2024-02-22 07:04:00+00:00,224.0,5.06,231.0,6.49,12.01,47.59359,-54.27349
2024-02-22 07:14:00+00:00,241.0,4.25,253.0,6.29,11.93,47.59359,-54.27349
2024-02-22 07:24:00+00:00,242.0,5.81,248.0,6.65,11.93,47.59359,-54.27349
2024-02-22 07:34:00+00:00,244.0,4.74,249.0,6.82,11.93,47.59359,-54.27349
2024-02-22 07:44:00+00:00,250.0,5.71,249.0,6.78,11.93,47.59359,-54.27349
2024-02-22 07:54:00+00:00,246.0,5.91,246.0,6.78,11.93,47.59359,-54.27349
2024-02-22 08:04:00+00:00,243.0,6.11,250.0,6.79,11.93,47.59359,-54.27349
2024-02-22 08:14:00+00:00,241.0,5.78,242.0,6.21,11.93,47.59359,-54.27349
2024-02-22 08:24:00+00:00,248.0,4.84,254.0,6.76,11.93,47.59359,-54.27349
2024-02-22 08:34:00+00:00,253.0,5.81,252.0,6.79,11.93,47.59359,-54.27349
2024-02-22 08:44:00+00:00,256.0,5.83,254.0,6.5,11.93,47.59359,-54.27349
2024-02-22 08:54:00+00:00,248.0,6.38,247.0,6.98,11.93,47.59359,-54.27349
2024-02-22 09:04:00+00:00,249.0,6.05,250.0,6.78,11.93,47.59359,-54.27349
2024-02-22 09:14:00+00:00,247.0,6.16,248.0,6.7,11.86,47.59359,-54.27349
2024-02-22 09:24:00+00:00,250.0,6.17,248.0,6.94,11.86,47.59359,-54.27349
2024-02-22 09:34:00+00:00,253.0,5.86,254.0,6.59,11.86,47.59359,-54.27349
2024-02-22 09:44:00+00:00,257.0,5.63,254.0,6.05,11.86,47.59359,-54.27349
2024-02-22 09:54:00+00:00,265.0,5.9,265.0,6.42,11.86,47.59359,-54.27349
2024-02-22 10:04:00+00:00,254.0,5.94,261.0,6.63,11.86,47.59359,-54.27349
2024-02-22 10:14:00+00:00,265.0,5.36,264.0,5.92,11.77,47.59359,-54.27349
2024-02-22 10:24:00+00:00,261.0,5.69,262.0,6.52,11.77,47.59359,-54.27349
2024-02-22 10:34:00+00:00,268.0,5.4,268.0,6.17,11.77,47.59359,-54.27349
2024-02-22 10:44:00+00:00,270.0,5.2,268.0,5.86,11.77,47.59359,-54.27349
2024-02-22 10:54:00+00:00,261.0,6.19,262.0,6.73,11.77,47.59359,-54.27349
2024-02-22 11:04:00+00:00,256.0,4.99,255.0,5.44,11.77,47.59359,-54.27349
2024-02-22 11:14:00+00:00,220.0,1.86,248.0,4.52,11.86,47.59359,-54.27349
2024-02-22 11:24:00+00:00,176.0,0.93,163.0,1.21,11.86,47.59359,-54.27349
2024-02-22 11:34:00+00:00,172.0,1.1,175.0,1.53,11.86,47.59359,-54.27349
2024-02-22 11:44:00+00:00,79.0,5.54,81.0,6.33,11.86,47.59359,-54.27349
2024-02-22 11:54:00+00:00,79.0,5.33,80.0,6.22,11.86,47.59359,-54.27349
2024-02-22 12:04:00+00:00,78.0,5.28,80.0,6.45,11.86,47.59359,-54.27349
2024-02-22 12:14:00+00:00,69.0,5.09,70.0,6.66,13.13,47.59359,-54.27349
2024-02-22 12:24:00+00:00,66.0,4.95,68.0,6.01,13.13,47.59359,-54.27349
2024-02-22 12:34:00+00:00,76.0,5.65,79.0,6.4,13.13,47.59359,-54.27349
2024-02-22 12:44:00+00:00,67.0,4.88,69.0,6.27,13.13,47.59359,-54.27349
2024-02-22 12:54:00+00:00,74.0,5.46,68.0,5.95,13.13,47.59359,-54.27349
2024-02-22 13:04:00+00:00,157.0,3.02,124.0,6.12,13.13,47.59359,-54.27349
2024-02-22 13:14:00+00:00,180.0,5.38,180.0,6.27,13.68,47.59359,-54.27349
2024-02-22 13:24:00+00:00,181.0,5.19,184.0,5.8,13.68,47.59359,-54.27349
2024-02-22 13:34:00+00:00,224.0,6.43,227.0,7.42,13.68,47.59359,-54.27349
2024-02-22 13:44:00+00:00,181.0,6.41,182.0,7.24,13.68,47.59359,-54.27349
2024-02-22 13:54:00+00:00,139.0,6.26,126.0,7.56,13.68,47.59359,-54.27349
2024-02-22 14:04:00+00:00,177.0,5.67,209.0,6.65,13.68,47.59359,-54.27349
2024-02-22 14:14:00+00:00,177.0,5.65,179.0,6.17,13.76,47.59359,-54.27349
2024-02-22 14:24:00+00:00,167.0,3.97,120.0,5.81,13.76,47.59359,-54.27349
2024-02-22 14:34:00+00:00,137.0,6.12,136.0,7.51,13.76,47.59359,-54.27349
2024-02-22 14:44:00+00:00,128.0,7.02,130.0,7.61,13.76,47.59359,-54.27349
2024-02-22 14:54:00+00:00,127.0,6.73,124.0,7.42,13.76,47.59359,-54.27349
2024-02-22 15:04:00+00:00,128.0,6.62,128.0,7.62,13.76,47.59359,-54.27349
2024-02-22 15:14:00+00:00,172.0,4.27,156.0,5.0,13.53,47.59359,-54.27349
2024-02-22 15:24:00+00:00,147.0,4.34,122.0,6.4,13.53,47.59359,-54.27349
2024-02-22 15:34:00+00:00,164.0,5.15,140.0,7.21,13.53,47.59359,-54.27349
2024-02-22 15:44:00+00:00,172.0,3.74,174.0,4.85,13.53,47.59359,-54.27349
2024-02-22 15:54:00+00:00,171.0,3.97,178.0,4.8,13.53,47.59359,-54.27349
2024-02-22 16:04:00+00:00,120.0,5.9,120.0,6.41,13.53,47.59359,-54.27349
2024-02-22 16:14:00+00:00,126.0,7.02,123.0,7.88,13.84,47.59359,-54.27349
2024-02-22 16:24:00+00:00,122.0,6.67,126.0,7.57,13.84,47.59359,-54.27349
2024-02-22 16:34:00+00:00,134.0,5.06,128.0,6.71,13.84,47.59359,-54.27349
2024-02-22 16:44:00+00:00,147.0,3.64,118.0,6.54,13.84,47.59359,-54.27349
2024-02-22 16:54:00+00:00,136.0,5.32,127.0,7.02,13.84,47.59359,-54.27349
2024-02-22 17:04:00+00:00,161.0,5.48,138.0,7.35,13.84,47.59359,-54.27349
2024-02-22 17:14:00+00:00,165.0,4.76,143.0,5.5,13.6,47.59359,-54.27349
2024-02-22 17:24:00+00:00,147.0,4.98,130.0,6.29,13.6,47.59359,-54.27349
2024-02-22 17:34:00+00:00,135.0,3.8,126.0,4.71,13.6,47.59359,-54.27349
2024-02-22 17:44:00+00:00,124.0,3.74,120.0,4.58,13.6,47.59359,-54.27349
2024-02-22 17:54:00+00:00,151.0,3.02,141.0,3.67,13.6,47.59359,-54.27349
2024-02-22 18:04:00+00:00,146.0,4.37,136.0,5.15,13.6,47.59359,-54.27349
2024-02-22 18:14:00+00:00,150.0,4.34,141.0,5.14,13.6,47.59359,-54.27349
2024-02-22 18:24:00+00:00,140.0,3.86,144.0,4.64,13.6,47.59359,-54.27349
2024-02-22 18:34:00+00:00,144.0,3.56,152.0,4.28,13.6,47.59359,-54.27349
2024-02-22 18:44:00+00:00,92.0,2.24,130.0,3.4,13.6,47.59359,-54.27349
2024-02-22 18:54:00+00:00,114.0,2.91,117.0,4.35,13.6,47.59359,-54.27349
2024-02-22 19:04:00+00:00,106.0,2.27,120.0,3.12,13.6,47.59359,-54.27349
2024-02-22 19:14:00+00:00,98.0,2.58,125.0,3.73,13.44,47.59359,-54.27349
2024-02-22 19:24:00+00:00,115.0,2.75,130.0,3.73,13.44,47.59359,-54.27349
2024-02-22 19:34:00+00:00,98.0,2.78,130.0,3.86,13.44,47.59359,-54.27349
2024-02-22 19:44:00+00:00,87.0,2.72,111.0,3.7,13.44,47.59359,-54.27349
2024-02-22 19:54:00+00:00,83.0,3.36,86.0,4.94,13.44,47.59359,-54.27349
2024-02-22 20:04:00+00:00,79.0,3.33,84.0,5.44,13.44,47.59359,-54.27349
2024-02-22 20:14:00+00:00,85.0,3.13,71.0,5.01,13.13,47.59359,-54.27349
2024-02-22 20:24:00+00:00,85.0,3.99,103.0,6.79,13.13,47.59359,-54.27349
2024-02-22 20:34:00+00:00,76.0,4.41,67.0,6.89,13.13,47.59359,-54.27349
2024-02-22 20:44:00+00:00,82.0,4.22,69.0,6.56,13.13,47.59359,-54.27349
2024-02-22 20:54:00+00:00,90.0,4.19,124.0,6.62,13.13,47.59359,-54.27349
2024-02-22 21:04:00+00:00,90.0,3.89,77.0,5.82,13.13,47.59359,-54.27349
2024-02-22 21:14:01+00:00,92.0,4.07,102.0,6.85,12.57,47.59359,-54.27349
2024-02-22 21:24:01+00:00,102.0,4.42,96.0,5.92,12.57,47.59359,-54.27349
2024-02-22 21:34:01+00:00,69.0,5.28,71.0,6.53,12.57,47.59359,-54.27349
2024-02-22 21:44:01+00:00,67.0,5.82,68.0,7.63,12.57,47.59359,-54.27349
2024-02-22 21:54:01+00:00,69.0,6.04,70.0,6.59,12.57,47.59359,-54.27349
2024-02-22 22:04:01+00:00,65.0,6.02,62.0,6.74,12.57,47.59359,-54.27349
2024-02-22 22:14:00+00:00,68.0,5.79,60.0,6.2,12.33,47.59359,-54.27349
2024-02-22 22:24:00+00:00,61.0,6.14,62.0,7.01,12.33,47.59359,-54.27349
2024-02-22 22:34:00+00:00,55.0,7.98,63.0,9.7,12.33,47.59359,-54.27349
2024-02-22 22:44:00+00:00,68.0,8.09,74.0,10.22,12.33,47.59359,-54.27349
2024-02-22 22:54:00+00:00,73.0,9.96,73.0,10.73,12.33,47.59359,-54.27349
2024-02-22 23:04:00+00:00,72.0,10.16,73.0,11.29,12.33,47.59359,-54.27349
2024-02-22 23:14:00+00:00,70.0,8.2,76.0,11.26,12.17,47.59359,-54.27349
2024-02-22 23:24:00+00:00,315.0,0.01,74.0,0.0,12.17,47.59359,-54.27349
2024-02-22 23:34:00+00:00,315.0,0.01,74.0,0.0,12.17,47.59359,-54.27349
2024-02-22 23:44:00+00:00,315.0,0.01,74.0,0.0,12.17,47.59359,-54.27349
2024-02-22 23:54:00+00:00,315.0,0.01,74.0,0.0,12.17,47.59359,-54.27349
